Regional Weather Roundup
Issued by NWS Burlington, VT

Home | Current Version | Previous Version | Text Only | Print | Product List | Glossary On
Versions: 1 2 3 4 5 6 7 8 9 10 11 12 13 14 15 16 17 18 19 20 21 22 23 24 25 26 27 28 29 30 31 32 33 34 35 36 37 38 39 40 41 42 43 44 45 46 47 48 49 50
000
ASUS41 KBTV 011810
RWRBTV
VERMONT REGIONAL WEATHER ROUNDUP
NATIONAL WEATHER SERVICE BURLINGTON VT
200 PM EDT WED APR 01 2015

NOTE: "FAIR" INDICATES FEW OR NO CLOUDS BELOW 12,000 FEET WITH NO
SIGNIFICANT WEATHER AND/OR OBSTRUCTIONS TO VISIBILITY.

* THESE REPORTS ARE NOT UNDER NWS QUALITY CONTROL AND/OR DO NOT
  REPORT WEATHER SUCH AS PRECIPITATION AND FOG.

VTZ001>019-011900-
_____VERMONT_____


CITY           SKY/WX    TMP DP  RH WIND       PRES   REMARKS
BURLINGTON     PTCLDY    35   3  26 N8G17     30.10S
6HR MIN TEMP:  25; 6HR MAX TEMP:  36;

MONTPELIER     CLEAR     29   3  33 W10G23    30.06S WCI  20
6HR MIN TEMP:  18; 6HR MAX TEMP:  30;

MORRISVILLE    CLEAR     33   7  33 NW10G20   30.07S
6HR MIN TEMP:  17; 6HR MAX TEMP:  33; 6HR PCP: TRACE;

ST. JOHNSBURY*   N/A     34   3  27 MISG      30.01R
6HR MIN TEMP:  16; 6HR MAX TEMP:  34;

LYNDONVILLE*     N/A     31   1  28 W12       30.01S
6HR MIN TEMP:  18; 6HR MAX TEMP:  31;

MIDDLEBURY*      N/A     34   5  29 NW7       30.08S
6HR MIN TEMP:  24; 6HR MAX TEMP:  35;

RUTLAND*       PTCLDY   N/A N/A N/A N15       30.05F
SPRINGFIELD    CLEAR     36   6  28 W14G28    30.03R
6HR MIN TEMP:  25; 6HR MAX TEMP:  37;

HIGHGATE*        N/A     31   8  37 N8        30.12S
6HR MIN TEMP:  23; 6HR MAX TEMP:  31;

NEWPORT*         N/A     28   5  38 NW10G18   30.04S WCI  18
6HR MIN TEMP:  15; 6HR MAX TEMP:  28;

BENNINGTON     CLEAR     38   8  29 VRB6      30.04S
6HR MIN TEMP:  27; 6HR MAX TEMP:  39;

SUTTON*          N/A     30 N/A N/A MISG        N/A

_____LAKE CHAMPLAIN_____


CITY           SKY/WX    TMP DP  RH WIND       PRES   REMARKS

$$

NYZ007-026>031-035-052-083-011900-
_____NORTHERN NEW YORK_____


CITY           SKY/WX    TMP DP  RH WIND       PRES   REMARKS
PLATTSBURGH    CLEAR     33   8  35 E13G20    30.10S
6HR MIN TEMP:  25; 6HR MAX TEMP:  34;

SARANAC LAKE   CLEAR     30   1  29 VRB6      30.02R
6HR MIN TEMP:   5; 6HR MAX TEMP:  30; 6HR PCP: TRACE;

MASSENA        CLEAR     33   8  35 W8        30.17R
6HR MIN TEMP:  24; 6HR MAX TEMP:  33;

OGDENSBURG*    CLEAR     37   9  30 W5        30.14F
POTSDAM*       CLEAR     34  10  37 N6        30.14S
WATERTOWN      CLEAR     38  10  31 NW6       30.16F
6HR MIN TEMP:  22; 6HR MAX TEMP:  38;

FT DRUM        CLEAR     32   6  32 VRB6      30.13S
6HR MIN TEMP:  22; 6HR MAX TEMP:  32;

ALBANY         PTCLDY    44   5  20 W12       30.07S
6HR MIN TEMP:  29; 6HR MAX TEMP:  45;

GLENS FALLS    CLEAR     38  12  34 E9        30.06F
6HR MIN TEMP:  25; 6HR MAX TEMP:  39;


$$
NHZ002-005-011-011900-
_____NEW HAMPSHIRE_____


CITY           SKY/WX    TMP DP  RH WIND       PRES   REMARKS
LEBANON        CLEAR     39   4  23 N16G25    30.02R
6HR MIN TEMP:  22; 6HR MAX TEMP:  40;

KEENE          CLEAR     39   7  26 NW12G20   30.02R
6HR MIN TEMP:  23; 6HR MAX TEMP:  39;

MT WASHINGTON  MOCLDY     3  -6  66 NW47G56     N/A  WCI -26
6HR MIN TEMP:  -3; 6HR MAX TEMP:   3;

PLYMOUTH         N/A     36  13  38 NW10G20   30.00F
6HR MIN TEMP:  28; 6HR MAX TEMP:  37;

WHITEFIELD     CLEAR     32   3  29 W13G22    29.98F
6HR MIN TEMP:  13; 6HR MAX TEMP:  32;


$$

_____REGIONAL QUEBEC LOCATIONS_____


CITY           SKY/WX    TMP DP  RH WIND       PRES   REMARKS
MONTREAL       PTCLDY    32   7  34 W10G20    30.12F
QUEBEC CITY    PTCLDY    27   1  33 W14       30.01S WCI  15
SHERBROOKE     CLEAR     27   1  33 NW16G23   30.03R WCI  14

_____REGIONAL ONTARIO LOCATIONS_____


CITY           SKY/WX    TMP DP  RH WIND       PRES   REMARKS
OTTAWA         PTCLDY    32   5  32 W6        30.13F

______KEY______
VSB  - VISIBILITY IN MILES
WCI  - WIND CHILL INDEX
HX   - HEAT INDEX
$$
NNNN


USA.gov is the U.S. government's official web portal to all federal, state and local government web resources and services.